(329252) = 1995 VQ10 = 2005 JB129

Discovered at Kitt Peak on 1995-11-15 by Spacewatch.

Orbit

Orbit type: Main Belt

Note: WebGL enabled browser required.

epoch2023-09-13.0
epoch JD2460200.5
perihelion date2023-07-28.49499
perihelion JD2460153.99499
argument of perihelion (°)162.20413
ascending node (°)150.92227
inclination (°)3.02746
eccentricity0.2498602
perihelion distance (AU)1.7406729
Tisserand w.r.t. Jupiter3.5
ΔV w.r.t. Earth (km/sec)8.2
semimajor axis (AU)2.3204646
mean anomaly (°)12.96705
mean daily motion (°/day)0.27883120
aphelion distance (AU)2.900
period (years)3.53
P-vector [x]0.68381740
P-vector [y]-0.67570061
P-vector [z]-0.27535877
Q-vector [x]0.72920158
Q-vector [y]0.64613764
Q-vector [z]0.22532469
absolute magnitude18.04
phase slope0.15
uncertainty0
referenceMPEC 2024-A48
observations used228
oppositions11
arc length (days)10249
first opposition used1995
last opposition used2023
residual rms (arc-secs)0.70
perturbers coarse indicatorM-v
perturbers precise indicator003Ek
first observation date used1995-10-15.0
last observation date used2023-11-06.0
computer nameMPCLINUX
JD of orbit computation2456069.349729
perihelion JD uncertainty (days)2.1698E-04
argument of perihelion uncertainty (°)4.2019E-04
ascending node uncertainty (°)4.1940E-04
inclination uncertainty (°)9.2290E-06
eccentricity uncertainty 8.5297E-08
perihelion distance uncertainty (AU)2.0712E-07
Minimum Orbit Intersection Distances (in AU)
for orbit epoch: 2460200.5, reference: E2024-A48
Mercury1.31443
Venus1.01514
Earth0.72641
Mars0.3555
Jupiter2.38362
Saturn6.23967
Uranus15.6064
Neptune27.3479

Observations

220 total observations over interval: 1995 10 15.50995 – 2023 11 06.288495
These data are available for download (format description).

Date (UT) J2000 RA J2000 Dec Magn Location Ref
1995 10 15.50995 02 29 15.79 +09 32 42.8 20.5 V 691 – Steward Observatory, Kitt Peak-Spacewatch MPS 141546
1995 10 15.51543 02 29 15.46 +09 32 41.0 20.4 V 691 – Steward Observatory, Kitt Peak-Spacewatch MPS 141546
1995 10 15.52189 02 29 15.09 +09 32 38.3 20.6 V 691 – Steward Observatory, Kitt Peak-Spacewatch MPS 141546
1995 11 15.18957 02 00 08.83 +06 52 12.9   691 – Steward Observatory, Kitt Peak-Spacewatch MPC 26292
1995 11 15.21064 02 00 07.86 +06 52 09.3   691 – Steward Observatory, Kitt Peak-Spacewatch MPC 26292
1995 11 15.23160 02 00 06.91 +06 52 05.4 20.8 V 691 – Steward Observatory, Kitt Peak-Spacewatch MPC 26292
1995 11 20.17494 01 56 51.86 +06 39 23.1   691 – Steward Observatory, Kitt Peak-Spacewatch MPC 26292
1995 11 20.19602 01 56 50.99 +06 39 20.5 20.9 V 691 – Steward Observatory, Kitt Peak-Spacewatch MPC 26292
1995 11 20.21738 01 56 50.15 +06 39 17.8   691 – Steward Observatory, Kitt Peak-Spacewatch MPC 26292
2005 05 13.25471 15 22 01.45 -12 32 43.1 20.1 V 691 – Steward Observatory, Kitt Peak-Spacewatch MPS 134994
2005 05 13.27247 15 22 00.33 -12 32 38.4 20.1 V 691 – Steward Observatory, Kitt Peak-Spacewatch MPS 134994
2005 05 13.29021 15 21 59.20 -12 32 33.1 20.2 V 691 – Steward Observatory, Kitt Peak-Spacewatch MPS 134994
2005 05 14.35593 15 20 53.73 -12 27 34.3 19.2 R G96 – Mt. Lemmon Survey MPS 134994
2005 05 14.36392 15 20 53.19 -12 27 32.2 19.4 R G96 – Mt. Lemmon Survey MPS 134994
2005 05 14.37193 15 20 52.65 -12 27 30.0 19.5 R G96 – Mt. Lemmon Survey MPS 134994
2005 05 14.37994 15 20 52.19 -12 27 27.7 19.2 R G96 – Mt. Lemmon Survey MPS 134994
2005 06 03.15935 15 02 00.43 -11 14 14.7 20.6 V 691 – Steward Observatory, Kitt Peak-Spacewatch MPS 141720
2005 06 03.18022 15 01 59.34 -11 14 12.2 20.7 V 691 – Steward Observatory, Kitt Peak-Spacewatch MPS 141720
2005 06 03.19778 15 01 58.50 -11 14 09.8 20.7 V 691 – Steward Observatory, Kitt Peak-Spacewatch MPS 141720
2009 09 23.29850 00 29 40.09 -00 32 54.2 19.4 V G96 – Mt. Lemmon Survey MPS 366900
2009 09 23.30829 00 29 39.55 -00 32 58.8 19.4 V G96 – Mt. Lemmon Survey MPS 366900
2009 09 23.31813 00 29 38.97 -00 33 03.3 19.5 V G96 – Mt. Lemmon Survey MPS 366900
2009 09 23.32797 00 29 38.47 -00 33 07.9 19.5 V G96 – Mt. Lemmon Survey MPS 366900
2012 04 16.34606 14 49 11.57 -11 11 19.9 20.8 V 691 – Steward Observatory, Kitt Peak-Spacewatch MPS 420787
2012 04 16.36461 14 49 10.63 -11 11 13.9 20.9 V 691 – Steward Observatory, Kitt Peak-Spacewatch MPS 420787
2012 04 16.38315 14 49 09.69 -11 11 07.4 20.6 V 691 – Steward Observatory, Kitt Peak-Spacewatch MPS 420787
2012 04 24.37311 14 42 07.18 -10 24 54.2 20.7 V 691 – Steward Observatory, Kitt Peak-Spacewatch MPS 421851
2012 04 24.39167 14 42 06.09 -10 24 47.2 20.7 V 691 – Steward Observatory, Kitt Peak-Spacewatch MPS 421851
2012 04 24.41021 14 42 04.98 -10 24 40.9 20.6 V 691 – Steward Observatory, Kitt Peak-Spacewatch MPS 421851
2012 04 27.43331 14 39 09.647 -10 06 39.79 20.5 w F51 – Pan-STARRS 1, Haleakala MPS 422803
2012 04 27.44826 14 39 08.769 -10 06 34.55 21.2 w F51 – Pan-STARRS 1, Haleakala MPS 422803
2012 04 27.46325 14 39 07.799 -10 06 29.07 20.4 w F51 – Pan-STARRS 1, Haleakala MPS 422803
2012 04 27.47828 14 39 06.868 -10 06 23.61 20.4 w F51 – Pan-STARRS 1, Haleakala MPS 422803
2012 05 21.35214 14 16 05.513 -08 02 37.56 20.7 w F51 – Pan-STARRS 1, Haleakala MPS 424909
2012 05 21.38115 14 16 04.003 -08 02 30.99 20.5 w F51 – Pan-STARRS 1, Haleakala MPS 424909
2012 05 21.39568 14 16 03.255 -08 02 27.76 20.6 w F51 – Pan-STARRS 1, Haleakala MPS 424909
2015 03 14.31777 10 39 41.364 +09 32 24.74 21.8 w F51 – Pan-STARRS 1, Haleakala MPS 591929
2015 03 14.34300 10 39 39.929 +09 32 34.02 21.8 w F51 – Pan-STARRS 1, Haleakala MPS 591929
2015 03 14.35585 10 39 39.216 +09 32 39.15 21.7 w F51 – Pan-STARRS 1, Haleakala MPS 591929
2015 03 15.30909 10 38 47.363 +09 38 37.05 21.8 w F51 – Pan-STARRS 1, Haleakala MPS 591929
2015 03 15.32187 10 38 46.656 +09 38 41.97 21.6 w F51 – Pan-STARRS 1, Haleakala MPS 591929
2015 03 15.33444 10 38 45.941 +09 38 46.67 22.0 w F51 – Pan-STARRS 1, Haleakala MPS 591929
2015 03 15.34718 10 38 45.215 +09 38 51.25 22.0 w F51 – Pan-STARRS 1, Haleakala MPS 591929
2015 04 15.17849 10 19 51.28 +11 48 11.6 22.3 R 695 – Kitt Peak MPS 604492
2015 04 15.25040 10 19 50.09 +11 48 19.6   695 – Kitt Peak MPS 604492
2015 04 15.32937 10 19 48.85 +11 48 27.8   695 – Kitt Peak MPS 604492
2015 04 24.14928 10 18 41.20 +11 58 12.5 22.4 R G37 – Lowell Discovery Telescope MPS 606264
2015 04 24.25541 10 18 41.00 +11 58 14.9   G37 – Lowell Discovery Telescope MPS 606264
2016 07 13.41404 23 12 45.30 -03 47 34.0 20.1 V G96 – Mt. Lemmon Survey MPS 721133
2016 07 13.42108 23 12 45.60 -03 47 33.1 20.1 V G96 – Mt. Lemmon Survey MPS 721133
2016 07 13.42811 23 12 45.88 -03 47 32.5   G96 – Mt. Lemmon Survey MPS 721133
2016 07 14.56173 23 13 36.229 -03 44 54.29 20.3 w F51 – Pan-STARRS 1, Haleakala MPS 721133
2016 07 14.57373 23 13 36.701 -03 44 52.73 20.3 w F51 – Pan-STARRS 1, Haleakala MPS 721133
2016 07 14.58570 23 13 37.180 -03 44 51.27 20.3 w F51 – Pan-STARRS 1, Haleakala MPS 721133
2016 07 14.59769 23 13 37.652 -03 44 49.73 20.3 w F51 – Pan-STARRS 1, Haleakala MPS 721133
2016 08 08.56883 23 20 59.843 -04 12 15.30 19.7 w F51 – Pan-STARRS 1, Haleakala MPS 724834
2016 08 08.57937 23 20 59.706 -04 12 18.08 19.7 w F51 – Pan-STARRS 1, Haleakala MPS 724834
2016 08 08.59003 23 20 59.573 -04 12 20.89 19.7 w F51 – Pan-STARRS 1, Haleakala MPS 724834
2016 08 08.60057 23 20 59.438 -04 12 23.64 19.8 w F51 – Pan-STARRS 1, Haleakala MPS 724834
2016 08 13.73991 23 19 48.28 -04 38 16.3 19.3 R D29 – Purple Mountain Observatory, XuYi Station MPS 724834
2016 08 13.75405 23 19 47.91 -04 38 21.1 20.3 R D29 – Purple Mountain Observatory, XuYi Station MPS 724834
2016 08 13.76819 23 19 47.63 -04 38 26.0 19.7 R D29 – Purple Mountain Observatory, XuYi Station MPS 724834
2016 08 26.33497 23 13 41.83 -06 03 25.6 18.6 V G96 – Mt. Lemmon Survey MPS 725488
2016 08 26.33778 23 13 41.71 -06 03 26.6 18.6 V G96 – Mt. Lemmon Survey MPS 725488
2016 08 26.34061 23 13 41.64 -06 03 28.0 18.5 V G96 – Mt. Lemmon Survey MPS 725488
2016 08 26.34344 23 13 41.53 -06 03 29.1 18.9 V G96 – Mt. Lemmon Survey MPS 725488
2016 08 28.64643 23 12 12.26 -06 21 18.0 19.0 R D29 – Purple Mountain Observatory, XuYi Station MPS 727350
2016 08 28.66145 23 12 11.62 -06 21 25.3 19.0 R D29 – Purple Mountain Observatory, XuYi Station MPS 727350
2016 08 28.67648 23 12 10.95 -06 21 32.8 18.6 R D29 – Purple Mountain Observatory, XuYi Station MPS 727350
2016 08 29.65078 23 11 31.82 -06 29 10.7 19.2 R D29 – Purple Mountain Observatory, XuYi Station MPS 727350
2016 08 29.65166 23 11 31.75 -06 29 11.4 19.3 R D29 – Purple Mountain Observatory, XuYi Station MPS 727350
2016 08 29.66580 23 11 31.10 -06 29 17.9 19.1 R D29 – Purple Mountain Observatory, XuYi Station MPS 727350
2016 08 29.66669 23 11 31.08 -06 29 18.3 19.3 R D29 – Purple Mountain Observatory, XuYi Station MPS 727350
2016 08 29.68083 23 11 30.43 -06 29 25.1 19.3 R D29 – Purple Mountain Observatory, XuYi Station MPS 727350
2016 08 29.68171 23 11 30.41 -06 29 25.6 19.1 R D29 – Purple Mountain Observatory, XuYi Station MPS 727350
2016 09 02.34866 23 08 57.00 -06 58 29.8 18.8 V 703 – Catalina Sky Survey MPS 727350
2016 09 02.35321 23 08 56.80 -06 58 32.3 18.9 V 703 – Catalina Sky Survey MPS 727350
2016 09 02.35773 23 08 56.55 -06 58 34.5 18.7 V 703 – Catalina Sky Survey MPS 727350
2016 09 02.36225 23 08 56.40 -06 58 35.8 18.8 V 703 – Catalina Sky Survey MPS 727350
2016 09 09.31518 23 03 57.47 -07 52 58.7 18.7 V 703 – Catalina Sky Survey MPS 729696
2016 09 09.32072 23 03 57.19 -07 52 59.8 18.9 V 703 – Catalina Sky Survey MPS 729696
2016 09 09.33179 23 03 56.55 -07 53 05.3 19.0 V 703 – Catalina Sky Survey MPS 729696
2016 09 10.27331 23 03 17.02 -08 00 10.1 19.2 V 691 – Steward Observatory, Kitt Peak-Spacewatch MPS 729696
2016 09 10.28240 23 03 16.62 -08 00 14.4 19.3 V 691 – Steward Observatory, Kitt Peak-Spacewatch MPS 729696
2016 09 10.29142 23 03 16.21 -08 00 18.4 19.3 V 691 – Steward Observatory, Kitt Peak-Spacewatch MPS 729696
2016 09 25.29389 22 54 25.92 -09 34 21.6 19.5 V G96 – Mt. Lemmon Survey MPS 732096
